千帆星座-157(QIANFAN-157)

导读

QIANFAN-157(NORAD编号69116)是中国上海垣信卫星科技有限公司(Spacesail)运营的低轨通信卫星,隶属于千帆星座(G60星链)项目,是该星座第七批组网卫星之一。卫星运行于近地轨道,轨道倾角约89度,近地点约791公里、远地点约815公里,周期约100.9分钟。 千帆星座计划部署超万颗低轨卫星,旨在为全球提供低延迟、高质量的宽带互联网通信服务,QIANFAN-157的成功入轨进一步推进了该商业星座的组网建设进程。

基本信息
目录编号:
69116
目录名称:
QIANFAN-157
国际标识:
2026-108N
轨道中心:
EARTH
卫星名称:
千帆星座-157
卫星全名:
千帆星座-157(QIANFAN-157)
卫星状态:
在轨 (已飞行27 天)
发射日期:
2026-05-17 UTC
国别 :
中国 (CN)
星等 :
--
轨道信息
数据来源 国际轨道数据
星历时间: 2026-06-13T04:43:29+0800
5小时前
查看轨道信息
半长轴: 7218.493km
偏心率: 0.0016836
轨道倾角: 89.011°
近地点辐角 129.340°
升交点赤经 22.675°
平近点角 230.929°
近地点: 828.202km
远地点: 852.51km
周期: 101.725分钟
每日圈数: 14.155755
详细信息
卫星平台:
157
覆盖范围:
全球
运营商:
上海垣信卫星科技有限公司
运营商所在国:
中国
使用方式:
暂无
卫星简介
千帆星座,也被称为“G60星链”计划,是中国版“星链”的重要组成部分,旨在打造一个由1.4万多颗低轨宽频多媒体卫星构成的庞大星座。千帆星座计划由上海垣信卫星科技有限公司负责实施,于2023年启动建设。该项目是我国第二个低轨卫星大星座,旨在通过构建庞大的卫星网络,为全球用户提供高质量的通信和宽带互联网服务。
2D轨道图
3D轨道图
轨道高度分析图
轨道倾角分析图
轨道综合分析图
查看轨道综合分析图